This is the latest recevied weather packets stored in our database for station/object KD0KHX-10. If no packets are shown the sender has not sent any weather packets the latest 1 day(s).
| Time | Temp. | Humidity | Pressure | Rain* | Wind** | Luminosity | Snow |
|---|---|---|---|---|---|---|---|
| 1778010303 | 6.67° C | 80% | 1008.3 hPa | 0 mm | 2.68 m/s, 73° | - | - |
| 1778010003 | 6.67° C | 80% | 1008.3 hPa | 0 mm | 2.24 m/s, 79° | - | - |
| 1778009703 | 6.67° C | 80% | 1008.4 hPa | 0 mm | 2.24 m/s, 81° | - | - |
| 1778009403 | 6.67° C | 80% | 1008.5 hPa | 0.25 mm | 2.24 m/s, 86° | - | - |
| 1778009103 | 6.67° C | 80% | 1008.5 hPa | 0.25 mm | 2.24 m/s, 87° | - | - |
| 1778008803 | 6.67° C | 81% | 1008.6 hPa | 0.25 mm | 2.24 m/s, 81° | - | - |
| 1778008503 | 6.67° C | 80% | 1008.6 hPa | 0.25 mm | 1.79 m/s, 80° | - | - |
| 1778008473 | 6.67° C | 80% | 1008.6 hPa | 0.25 mm | 1.79 m/s, 81° | - | - |
| 1778007903 | 6.67° C | 81% | 1008.5 hPa | 0.25 mm | 1.79 m/s, 100° | - | - |
| 1778007603 | 6.67° C | 80% | 1008.5 hPa | 0.25 mm | 1.79 m/s, 94° | - | - |
| 1778007303 | 6.67° C | 80% | 1008.5 hPa | 0.25 mm | 2.24 m/s, 94° | - | - |
| 1778007138 | 6.67° C | 80% | 1008.6 hPa | 0.25 mm | 2.68 m/s, 97° | - | - |
| 1778006703 | 6.67° C | 80% | 1008.7 hPa | 0.25 mm | 2.68 m/s, 95° | - | - |
| 1778006403 | 6.67° C | 81% | 1008.7 hPa | 0.25 mm | 2.68 m/s, 92° | - | - |
| 1778006103 | 6.67° C | 81% | 1008.9 hPa | 0.25 mm | 2.68 m/s, 91° | - | - |
| 1778005803 | 6.67° C | 80% | 1009 hPa | 0 mm | 2.68 m/s, 94° | - | - |
| 1778005503 | 6.67° C | 80% | 1009 hPa | 0 mm | 2.68 m/s, 92° | - | - |
| 1778005203 | 6.67° C | 81% | 1009 hPa | 0 mm | 2.24 m/s, 85° | - | - |
| 1778005036 | 6.67° C | 81% | 1009.1 hPa | 0 mm | 2.24 m/s, 79° | - | - |
| 1778004737 | 6.67° C | 81% | 1009.2 hPa | 0 mm | 1.79 m/s, 85° | - | - |
| 1778004303 | 6.67° C | 81% | 1009.2 hPa | 0 mm | 1.34 m/s, 95° | - | - |
| 1778004273 | 6.67° C | 81% | 1009.2 hPa | 0 mm | 1.34 m/s, 95° | - | - |
| 1778003703 | 6.67° C | 81% | 1009.3 hPa | 0 mm | 1.79 m/s, 74° | - | - |
| 1778003403 | 6.67° C | 81% | 1009.3 hPa | 0 mm | 1.34 m/s, 73° | - | - |
| 1778003373 | 6.67° C | 80% | 1009.3 hPa | 0 mm | 1.34 m/s, 75° | - | - |
* Rain latest hour (hover to see other rain measurements)
** Current wind speed in m/s (hover to see current wind gust speed)